Regional Weather Roundup
Issued by NWS Goodland, KS

Home | Current Version | Previous Version | Text Only | Print | Product List | Glossary Off
Versions: 1 2 3 4 5 6 7 8 9 10 11 12 13 14 15 16 17 18 19 20 21 22 23 24 25 26 27 28 29 30 31 32 33 34 35 36 37 38 39 40 41 42 43 44 45 46 47 48 49 50

000
ASUS43 KGLD 260208
RWRGLD

GOODLAND FORECAST AREA HOURLY WEATHER ROUNDUP
NATIONAL WEATHER SERVICE GOODLAND KS
800 PM MDT FRI JUL 25 2014

...OFFICIAL OBSERVATIONS...

CITY           SKY/WX    TMP DP  RH WIND       PRES   REMARKS
GOODLAND KS    PTCLDY    83  65  54 E7        29.92F
HILL CITY KS   PTCLDY    86  69  56 NE8       29.81F
IMPERIAL NEB   CLOUDY    82  66  58 SE5       29.91R
MCCOOK NEB     CLOUDY    84  69  60 E3        29.86R
AKRON CO       CLOUDY    81  48  31 VRB3      30.03S
BURLINGTON CO  MOCLDY    83  60  45 NE7       29.97S
LIMON CO       MOCLDY    72  55  55 NW5       30.09F
$$

...UNOFFICIAL OBSERVATIONS...

CITY           SKY/WX    TMP DP  RH WIND       PRES   REMARKS
COLBY KS       HAZE      82  70  65 NE7       29.90R VSB 1
GOVE KS          N/A     88  32  13 MISG        N/A
NORTON KS      CLEAR     81  64  57 NE5       29.83S
OBERLIN KS     FAIR      84  66  54 E6        29.86
SHARON SPRINGS   N/A     86  66  51 NE6         N/A
ST FRANCIS KS  PTCLDY    82  59  44 E6        29.91R
TRIBUNE KS     MOCLDY    84 N/A N/A E8        29.91  VSB 3/4
TRENTON NEB      N/A     84  32  15 SE5         N/A
KIT CARSON CO    N/A     89  60  37 N8          N/A
WRAY CO          N/A     84  55  37 NE5       29.94
YUMA CO          N/A     82  60  47 NE5         N/A
$$



USA.gov is the U.S. government's official web portal to all federal, state and local government web resources and services.